Weather Roundup
Issued by NWS Springfield, MO

Home | Current Version | Previous Version | Text Only | Print | Product List | Glossary On
Versions: 1 2 3 4 5 6 7 8 9 10 11 12 13 14 15 16 17 18 19 20 21 22 23 24 25 26 27 28 29 30 31 32 33 34 35 36 37 38 39 40 41 42 43 44 45 46 47 48 49 50
000
NZUS99 KSGF 051707
HRRSGF

HOURLY WEATHER
NATIONAL WEATHER SERVICE SPRINGFIELD MO
1100 AM CST MON DEC 05 2016

......SGF CWA......

CITY           SKY/WX    TMP DP  RH WIND       PRES   REMARKS
SPRINGFIELD    CLOUDY    39  36  89 SE15      29.94S WCI  31
JOPLIN         SUNNY     44  37  76 SE9       29.93S
WEST PLAINS    MOSUNNY   42  36  79 SE12      29.99F
ROLLA          CLOUDY    38  37  97 SE8       29.96F WCI  32
OSAGE BEACH    PTSUNNY   39  36  89 SE8       29.97F WCI  33
BRANSON        CLOUDY    37  37 100 SE9G21    29.97S WCI  31

......SURROUNDING SGF CWA......

CITY           SKY/WX    TMP DP  RH WIND       PRES   REMARKS
CHANUTE        MOSUNNY   44  41  89 S12       29.87F
PARSONS        MOSUNNY   46  41  82 S7        29.90F
COFFEYVILLE    CLOUDY    42  41  96 S13       29.92S
EMPORIA        PTSUNNY   39  37  92 S18G24    29.82F WCI  30
GROVE OK       CLOUDY    50  43  76 S8        29.94S
ROGERS AR      PTSUNNY   42  36  79 SE13      29.94S
SILOAM SPRINGS CLOUDY    41  37  87 SE5       29.94R
HARRISON AR    CLOUDY    38  38 100 SE13      29.96F WCI  30
NEAR YELLVILLE CLOUDY    39  36  87 SE9       29.97F WCI  33

......KANSAS AND MISSOURI......

CITY           SKY/WX    TMP DP  RH WIND       PRES   REMARKS
KANSAS CTY INT SUNNY     47  37  68 S15G26    29.85F
DOWNTOWN KC    SUNNY     44  39  82 S13       29.89S
COLUMBIA       CLOUDY    38  38 100 SE7       29.96F FOG     WCI  33
SEDALIA        SUNNY     46  39  76 S10       29.94F
ST JOSEPH      SUNNY     46  40  79 S12       29.84F
ST LOUIS       CLOUDY    42  35  76 E10       30.02F
SPIRIT OF STL  CLOUDY    39  37  92 SE6       30.02F WCI  35
KIRKSVILLE     FOG       35  35 100 SE7       29.95  VSB 1/2 WCI  29
WICHITA        MOSUNNY   47  39  74 S20G29    29.78F
TOPEKA         SUNNY     46  38  73 S15G21    29.83F
OLATHE         PTSUNNY   42  39  89 S18       29.87F

......TENNESSEE......

CITY           SKY/WX    TMP DP  RH WIND       PRES   REMARKS
MEMPHIS        CLOUDY    44  41  89 MISG      30.00F
NASHVILLE      CLOUDY    44  40  85 NE8       30.06F

......ARKANSAS.......

CITY           SKY/WX    TMP DP  RH WIND       PRES   REMARKS
FAYETTEVILLE   CLOUDY    36  36 100 CALM      29.94F
FT SMITH       CLOUDY    45  41  86 E10       29.95F
LITTLE ROCK    CLOUDY    43  41  93 NE8       29.99F

......OKLAHOMA.......

CITY           SKY/WX    TMP DP  RH WIND       PRES   REMARKS
TULSA          CLOUDY    44  41  89 S12       29.92S
PONCA CITY     SUNNY     49  39  68 S12G21    29.85F
MCALESTER      CLOUDY    43  41  93 VRB3      29.92F
OKLAHOMA CITY  PTSUNNY   42  41  96 S13       29.88S

......IOWA............

CITY           SKY/WX    TMP DP  RH WIND       PRES   REMARKS
DES MOINES     MOSUNNY   44  37  76 S17       29.84F
QUAD CITIES    CLOUDY    34  31  88 S8        29.98S FOG     WCI  27

......ILLINOIS........

CITY           SKY/WX    TMP DP  RH WIND       PRES   REMARKS
QUINCY         FOG       34  34 100 S9        29.99F VSB 1/4 WCI  27
CHICAGO        CLOUDY    32  31  96 S10       30.03S FOG     WCI  24




USA.gov is the U.S. government's official web portal to all federal, state and local government web resources and services.